PW5140 Weather Reports


Display with metric or nautical units.
time (UTC)temp
F
wind
direction
speed
MPH
gust
MPH
rain 1hr
in
rain 24hr
in
rain mn
in
humidity
%
barometer
mb
20210923200313 84 225 0.0 0.0 0.00 0.00 0.00 35 1018.0
20210923195810 84 64 0.0 0.0 0.00 0.00 0.00 34 1018.0
20210923195325 85 263 0.0 0.0 0.00 0.00 0.00 35 1018.1
20210923194821 85 263 0.0 0.0 0.00 0.00 0.00 36 1018.2
20210923194316 85 213 0.0 6.0 0.00 0.00 0.00 35 1018.4
20210923193812 85 236 0.0 4.0 0.00 0.00 0.00 36 1018.4
20210923193311 85 132 0.0 6.0 0.00 0.00 0.00 35 1018.5
20210923192827 85 246 0.0 8.0 0.00 0.00 0.00 35 1018.6
20210923192323 85 228 0.0 0.0 0.00 0.00 0.00 34 1018.7
20210923191819 85 158 0.0 0.0 0.00 0.00 0.00 35 1018.7
20210923191314 85 121 0.0 0.0 0.00 0.00 0.00 34 1018.7
20210923190810 85 144 0.0 0.0 0.00 0.00 0.00 36 1018.8
20210923190326 84 81 0.0 4.0 0.00 0.00 0.00 36 1018.9
20210923185826 84 220 0.0 6.0 0.00 0.00 0.00 36 1019.0
20210923185322 84 157 0.0 2.0 0.00 0.00 0.00 36 1019.1
20210923184818 84 128 0.0 2.0 0.00 0.00 0.00 37 1019.1
20210923184314 84 71 0.0 2.0 0.00 0.00 0.00 36 1019.2
20210923183810 84 217 0.0 1.0 0.00 0.00 0.00 38 1019.2
20210923183326 84 235 0.0 1.0 0.00 0.00 0.00 39 1019.3
20210923182822 83 235 0.0 0.0 0.00 0.00 0.00 38 1019.5
20210923182321 83 32 0.0 1.0 0.00 0.00 0.00 38 1019.6
20210923181817 83 188 0.0 1.0 0.00 0.00 0.00 36 1019.7
20210923181313 83 117 0.0 6.0 0.00 0.00 0.00 38 1019.8
20210923180809 83 86 0.0 0.0 0.00 0.00 0.00 38 1019.9
20210923180325 83 55 0.0 0.0 0.00 0.00 0.00 37 1019.9
20210923175821 83 47 0.0 4.0 0.00 0.00 0.00 36 1020.0
20210923175317 84 114 0.0 4.0 0.00 0.00 0.00 37 1020.1
20210923174817 84 31 0.0 6.0 0.00 0.00 0.00 38 1020.0
20210923174313 83 22 0.0 6.0 0.00 0.00 0.00 37 1020.1
20210923173829 83 260 0.0 0.0 0.00 0.00 0.00 38 1020.2
20210923173324 83 142 0.0 0.0 0.00 0.00 0.00 38 1020.3
20210923172820 82 253 0.0 0.0 0.00 0.00 0.00 39 1020.3
20210923172316 82 185 0.0 0.0 0.00 0.00 0.00 39 1020.4
20210923171812 82 236 0.0 0.0 0.00 0.00 0.00 39 1020.4
20210923171312 82 30 0.0 0.0 0.00 0.00 0.00 42 1020.6
20210923170828 82 276 0.0 0.0 0.00 0.00 0.00 42 1020.6
20210923170324 82 117 0.0 0.0 0.00 0.00 0.00 41 1020.6
20210923165819 81 134 0.0 0.0 0.00 0.00 0.00 41 1020.7
20210923165315 81 138 0.0 4.0 0.00 0.00 0.00 41 1020.8
20210923164811 81 175 0.0 3.0 0.00 0.00 0.00 41 1020.8
20210923164327 81 88 0.0 0.0 0.00 0.00 0.00 44 1020.8
20210923163823 80 76 0.0 0.0 0.00 0.00 0.00 46 1020.9
20210923163323 80 86 0.0 0.0 0.00 0.00 0.00 45 1021.0
20210923162819 79 72 0.0 0.0 0.00 0.00 0.00 48 1021.0
20210923162314 79 37 0.0 0.0 0.00 0.00 0.00 50 1021.0
20210923161810 78 130 0.0 0.0 0.00 0.00 0.00 50 1021.0
20210923161326 78 252 0.0 0.0 0.00 0.00 0.00 51 1021.0
20210923160822 77 62 0.0 2.0 0.00 0.00 0.00 53 1021.0
20210923160318 77 183 0.0 2.0 0.00 0.00 0.00 53 1021.1
20210923155818 76 321 0.0 1.0 0.00 0.00 0.00 55 1021.1
20210923155313 76 355 0.0 0.0 0.00 0.00 0.00 56 1021.1
20210923154809 75 10 0.0 0.0 0.00 0.00 0.00 57 1021.2
20210923154325 75 169 0.0 0.0 0.00 0.00 0.00 59 1021.1
20210923153821 74 149 0.0 0.0 0.00 0.00 0.00 62 1021.2
20210923153316 73 38 0.0 0.0 0.00 0.00 0.00 64 1021.1
20210923152811 72 350 0.0 0.0 0.00 0.00 0.00 65 1021.1
20210923152311 71 98 0.0 0.0 0.00 0.00 0.00 66 1021.1
20210923151827 70 249 0.0 0.0 0.00 0.00 0.00 68 1021.1
20210923151323 69 174 0.0 0.0 0.00 0.00 0.00 69 1021.0
20210923150819 68 200 0.0 0.0 0.00 0.00 0.00 71 1021.0
20210923150314 67 166 0.0 0.0 0.00 0.00 0.00 71 1021.0
20210923145830 66 184 0.0 0.0 0.00 0.00 0.00 74 1020.9
20210923145326 65 135 0.0 0.0 0.00 0.00 0.00 75 1020.9
20210923144826 64 223 0.0 1.0 0.00 0.00 0.00 79 1021.0
20210923144321 63 200 0.0 1.0 0.00 0.00 0.00 79 1021.0
20210923143817 63 200 0.0 1.0 0.00 0.00 0.00 80 1021.0
20210923143313 62 200 0.0 1.0 0.00 0.00 0.00 82 1020.9
20210923142829 61 200 0.0 1.0 0.00 0.00 0.00 84 1020.9
20210923142323 60 190 0.0 5.0 0.00 0.00 0.00 85 1020.9
20210923141819 59 214 1.0 3.0 0.00 0.00 0.00 85 1020.9
20210923141318 58 228 0.0 2.0 0.00 0.00 0.00 88 1020.9
20210923140814 58 181 0.0 0.0 0.00 0.00 0.00 91 1020.9
20210923140330 57 181 0.0 0.0 0.00 0.00 0.00 91 1020.9
20210923135826 57 181 0.0 0.0 0.00 0.00 0.00 92 1020.8
20210923135322 56 181 0.0 0.0 0.00 0.00 0.00 92 1020.8
20210923134818 56 181 0.0 0.0 0.00 0.00 0.00 92 1020.8
20210923134313 55 181 0.0 0.0 0.00 0.00 0.00 92 1020.7
20210923133813 55 181 0.0 0.0 0.00 0.00 0.00 92 1020.7
20210923133329 54 181 0.0 0.0 0.00 0.00 0.00 91 1020.6
20210923132825 54 181 0.0 0.0 0.00 0.00 0.00 91 1020.6
20210923132321 54 181 0.0 0.0 0.00 0.00 0.00 90 1020.6
20210923131817 54 181 0.0 0.0 0.00 0.00 0.00 90 1020.6
20210923131313 54 181 0.0 0.0 0.00 0.00 0.00 90 1020.7
20210923130828 53 181 0.0 0.0 0.00 0.00 0.00 90 1020.7
20210923130324 53 181 0.0 0.0 0.00 0.00 0.00 90 1020.8
20210923125824 53 181 0.0 0.0 0.00 0.00 0.00 90 1020.7
20210923125320 53 181 0.0 0.0 0.00 0.00 0.00 90 1020.6
20210923124816 53 181 0.0 0.0 0.00 0.00 0.00 89 1020.7
20210923124312 53 181 0.0 0.0 0.00 0.00 0.00 89 1020.7
20210923123828 53 181 0.0 0.0 0.00 0.00 0.00 89 1020.7
20210923123323 53 181 0.0 0.0 0.00 0.00 0.00 88 1020.6
20210923122820 53 181 0.0 0.0 0.00 0.00 0.00 88 1020.6
20210923122319 53 181 0.0 0.0 0.00 0.00 0.00 88 1020.6
20210923121815 53 181 0.0 0.0 0.00 0.00 0.00 88 1020.5
20210923121310 53 181 0.0 0.0 0.00 0.00 0.00 88 1020.5
20210923120827 53 181 0.0 0.0 0.00 0.00 0.00 87 1020.5
20210923120323 53 181 0.0 0.0 0.00 0.00 0.00 87 1020.5
20210923115819 53 181 0.0 0.0 0.00 0.00 0.00 88 1020.5
20210923115314 53 181 0.0 0.0 0.00 0.00 0.00 87 1020.4
20210923114814 53 181 0.0 0.0 0.00 0.00 0.00 87 1020.4
20210923114330 53 181 0.0 0.0 0.00 0.00 0.00 87 1020.3
20210923113826 53 181 0.0 0.0 0.00 0.00 0.00 87 1020.3
20210923113322 53 181 0.0 0.0 0.00 0.00 0.00 86 1020.2
20210923112818 54 181 0.0 0.0 0.00 0.00 0.00 86 1020.1
20210923112314 54 181 0.0 0.0 0.00 0.00 0.00 87 1020.1
20210923111829 54 181 0.0 0.0 0.00 0.00 0.00 86 1020.1
20210923111329 54 181 0.0 0.0 0.00 0.00 0.00 86 1020.0
20210923110825 54 181 0.0 0.0 0.00 0.00 0.00 86 1020.1
20210923110321 54 181 0.0 0.0 0.00 0.00 0.00 86 1020.0
20210923105816 54 181 0.0 0.0 0.00 0.00 0.00 86 1020.0
20210923105312 54 181 0.0 0.0 0.00 0.00 0.00 85 1019.9
20210923104828 54 181 0.0 0.0 0.00 0.00 0.00 86 1019.9
20210923104324 54 181 0.0 0.0 0.00 0.00 0.00 85 1020.1
20210923103824 54 181 0.0 0.0 0.00 0.00 0.00 85 1020.1
20210923103319 54 181 0.0 0.0 0.00 0.00 0.00 84 1020.1
20210923102815 54 181 0.0 0.0 0.00 0.00 0.00 84 1020.1
20210923102311 54 181 0.0 0.0 0.00 0.00 0.00 83 1020.1
20210923101827 54 181 0.0 0.0 0.00 0.00 0.00 83 1020.1
20210923101322 54 181 0.0 0.0 0.00 0.00 0.00 83 1020.1
20210923100819 54 181 0.0 0.0 0.00 0.00 0.00 83 1020.0
20210923100318 54 181 0.0 0.0 0.00 0.00 0.00 83 1020.1
20210923095814 54 181 0.0 0.0 0.00 0.00 0.00 82 1020.1
20210923095330 54 181 0.0 0.0 0.00 0.00 0.00 82 1020.1
20210923094826 54 181 0.0 0.0 0.00 0.00 0.00 82 1020.0
20210923094322 54 181 0.0 0.0 0.00 0.00 0.00 81 1020.1
20210923093818 54 181 0.0 0.0 0.00 0.00 0.00 81 1020.1
20210923093314 55 181 0.0 0.0 0.00 0.00 0.00 81 1020.1
20210923092813 55 181 0.0 0.0 0.00 0.00 0.00 81 1020.1
20210923092329 55 181 0.0 0.0 0.00 0.00 0.00 80 1020.1
20210923091825 55 181 0.0 0.0 0.00 0.00 0.00 80 1020.2
20210923091320 55 181 0.0 0.0 0.00 0.00 0.00 80 1020.3
20210923090816 55 181 0.0 0.0 0.00 0.00 0.00 79 1020.4
20210923090312 55 181 0.0 0.0 0.00 0.00 0.00 80 1020.4
20210923085828 55 181 0.0 0.0 0.00 0.00 0.00 79 1020.3
20210923085322 55 181 0.0 0.0 0.00 0.00 0.00 79 1020.4
20210923084822 55 181 0.0 0.0 0.00 0.00 0.00 79 1020.4
20210923084316 55 181 0.0 0.0 0.00 0.00 0.00 78 1020.4
20210923083812 55 181 0.0 0.0 0.00 0.00 0.00 78 1020.4
20210923083327 55 181 0.0 0.0 0.00 0.00 0.00 77 1020.4
20210923082824 56 181 0.0 0.0 0.00 0.00 0.00 78 1020.4
20210923082319 56 181 0.0 0.0 0.00 0.00 0.00 78 1020.4
20210923081815 56 181 0.0 0.0 0.00 0.00 0.00 77 1020.4
20210923081314 56 181 0.0 0.0 0.00 0.00 0.00 77 1020.4
20210923080810 56 181 0.0 0.0 0.00 0.00 0.00 77 1020.4
20210923080326 56 181 0.0 0.0 0.00 0.00 0.00 76 1020.5
20210923075822 56 181 0.0 0.0 0.00 0.00 0.00 76 1020.5
20210923075318 56 181 0.0 0.0 0.00 0.00 0.00 76 1020.5
20210923074814 56 181 0.0 0.0 0.00 0.00 0.00 76 1020.5
20210923074330 56 181 0.0 0.0 0.00 0.00 0.00 75 1020.5
20210923073830 57 181 0.0 0.0 0.00 0.00 0.00 75 1020.5
20210923073326 57 181 0.0 0.0 0.00 0.00 0.00 74 1020.5
20210923072821 57 181 0.0 0.0 0.00 0.00 0.00 74 1020.6
20210923072317 57 181 0.0 0.0 0.00 0.00 0.00 73 1020.6
20210923071813 57 181 0.0 0.0 0.00 0.00 0.00 73 1020.6
20210923071329 57 181 0.0 0.0 0.00 0.00 0.00 73 1020.6
20210923070825 57 181 0.0 0.0 0.00 0.00 0.00 72 1020.7
20210923070325 58 181 0.0 0.0 0.00 0.00 0.00 73 1020.6
20210923065819 58 181 0.0 0.0 0.00 0.00 0.00 72 1020.6
20210923065315 58 181 0.0 0.0 0.00 0.00 0.00 72 1020.7
20210923064810 58 181 0.0 0.0 0.00 0.00 0.00 72 1020.7
20210923064326 58 181 0.0 0.0 0.00 0.00 0.00 71 1020.7
20210923063822 59 181 0.0 0.0 0.00 0.00 0.00 70 1020.7
20210923063318 59 181 0.0 0.0 0.00 0.00 0.00 71 1020.7
20210923062818 59 181 0.0 0.0 0.00 0.00 0.00 71 1020.7
20210923062314 59 181 0.0 0.0 0.00 0.00 0.00 71 1020.7
20210923061830 59 181 0.0 0.0 0.00 0.00 0.00 70 1020.7
20210923061326 59 181 0.0 0.0 0.00 0.00 0.00 69 1020.7
20210923060821 59 181 0.0 0.0 0.00 0.00 0.00 70 1020.7
20210923060317 59 181 0.0 0.0 0.00 0.00 0.00 69 1020.7
20210923055813 59 181 0.0 0.0 0.00 0.00 0.00 68 1020.7
20210923055313 59 181 0.0 0.0 0.00 0.00 0.00 67 1020.8
20210923054829 60 181 0.0 0.0 0.00 0.00 0.00 66 1020.7
20210923054325 60 181 0.0 0.0 0.00 0.00 0.00 67 1020.8
20210923053820 60 181 0.0 0.0 0.00 0.00 0.00 67 1020.8
20210923053316 60 181 0.0 0.0 0.00 0.00 0.00 66 1020.8
20210923052812 60 181 0.0 0.0 0.00 0.00 0.00 66 1020.8
20210923052328 60 181 0.0 0.0 0.00 0.00 0.00 66 1020.8
20210923051823 60 181 0.0 0.0 0.00 0.00 0.00 65 1020.8
20210923051324 60 181 0.0 0.0 0.00 0.00 0.00 64 1020.9
20210923050820 60 181 0.0 0.0 0.00 0.00 0.00 64 1020.9
20210923050315 61 181 0.0 0.0 0.00 0.00 0.00 64 1020.9
20210923045811 61 181 0.0 0.0 0.00 0.00 0.00 64 1020.9
20210923045327 61 181 0.0 0.0 0.00 0.00 0.00 63 1020.8
20210923044823 61 181 0.0 0.0 0.00 0.00 0.00 62 1020.7
20210923044319 61 181 0.0 0.0 0.00 0.00 0.00 62 1020.7
20210923043819 61 181 0.0 0.0 0.00 0.00 0.00 62 1020.7
20210923043314 61 181 0.0 0.0 0.00 0.00 0.00 61 1020.7
20210923042810 62 181 0.0 0.0 0.00 0.00 0.00 60 1020.8
20210923042326 62 181 0.0 0.0 0.00 0.00 0.00 60 1020.8
20210923041822 62 181 0.0 0.0 0.00 0.00 0.00 60 1020.7
20210923041318 62 181 0.0 0.0 0.00 0.00 0.00 60 1020.7
20210923040813 63 181 0.0 0.0 0.00 0.00 0.00 60 1020.7
20210923040313 63 181 0.0 0.0 0.00 0.00 0.00 60 1020.7
20210923035829 63 181 0.0 0.0 0.00 0.00 0.00 60 1020.6
20210923035325 63 181 0.0 0.0 0.00 0.00 0.00 60 1020.6
20210923034821 63 181 0.0 0.0 0.00 0.00 0.00 59 1020.7
20210923034317 64 181 0.0 0.0 0.00 0.00 0.00 57 1020.7
20210923033812 64 181 0.0 0.0 0.00 0.00 0.00 56 1020.7
20210923033328 64 181 0.0 0.0 0.00 0.00 0.00 57 1020.7
20210923032828 64 181 0.0 0.0 0.00 0.00 0.00 55 1020.7
20210923032324 64 181 0.0 0.0 0.00 0.00 0.00 54 1020.7
20210923031820 65 181 0.0 0.0 0.00 0.00 0.00 54 1020.7
20210923031315 65 181 0.0 0.0 0.00 0.00 0.00 54 1020.6
20210923030812 65 181 0.0 0.0 0.00 0.00 0.00 55 1020.6
20210923030328 65 181 0.0 0.0 0.00 0.00 0.00 52 1020.6
20210923025823 65 181 0.0 0.0 0.00 0.00 0.00 52 1020.6
20210923025323 65 181 0.0 0.0 0.00 0.00 0.00 52 1020.5
20210923024819 66 181 0.0 0.0 0.00 0.00 0.00 52 1020.5
20210923024315 66 181 0.0 0.0 0.00 0.00 0.00 51 1020.4
20210923023810 66 181 0.0 0.0 0.00 0.00 0.00 50 1020.4
20210923023326 66 181 0.0 0.0 0.00 0.00 0.00 51 1020.5
20210923022823 66 181 0.0 0.0 0.00 0.00 0.00 50 1020.5
20210923022318 67 181 0.0 0.0 0.00 0.00 0.00 50 1020.5
20210923021818 67 181 0.0 0.0 0.00 0.00 0.00 49 1020.4
20210923021313 67 181 0.0 0.0 0.00 0.00 0.00 49 1020.3
20210923020829 67 181 0.0 0.0 0.00 0.00 0.00 49 1020.4
20210923020325 68 181 0.0 0.0 0.00 0.00 0.00 48 1020.3
20210923015821 68 181 0.0 0.0 0.00 0.00 0.00 47 1020.3
20210923015317 68 181 0.0 0.0 0.00 0.00 0.00 46 1020.2
20210923014813 69 181 0.0 0.0 0.00 0.00 0.00 46 1020.1
20210923014311 69 181 0.0 0.0 0.00 0.00 0.00 46 1020.1
20210923013827 69 181 0.0 0.0 0.00 0.00 0.00 45 1019.9
20210923013323 70 181 0.0 0.0 0.00 0.00 0.00 45 1019.9
20210923012818 70 181 0.0 0.0 0.00 0.00 0.00 44 1019.8
20210923012314 71 181 0.0 0.0 0.00 0.00 0.00 44 1019.7
20210923011810 71 181 0.0 0.0 0.00 0.00 0.00 44 1019.6
20210923011326 72 181 0.0 0.0 0.00 0.00 0.00 43 1019.7
20210923010822 72 181 0.0 0.0 0.00 0.00 0.00 42 1019.7
20210923010319 73 181 0.0 0.0 0.00 0.00 0.00 42 1019.5
20210923005815 73 181 0.0 0.0 0.00 0.00 0.00 41 1019.5
20210923005312 74 181 0.0 0.0 0.00 0.00 0.00 41 1019.5
20210923004826 74 181 0.0 0.0 0.00 0.00 0.00 40 1019.5
20210923004322 75 181 0.0 0.0 0.00 0.00 0.00 39 1019.5
20210923003817 75 181 0.0 0.0 0.00 0.00 0.00 38 1019.5
20210923003313 76 181 0.0 0.0 0.00 0.00 0.00 38 1019.6
20210923002813 76 181 0.0 0.0 0.00 0.00 0.00 38 1019.5
20210923002329 76 181 0.0 0.0 0.00 0.00 0.00 37 1019.5
20210923001824 77 181 0.0 0.0 0.00 0.00 0.00 37 1019.4
20210923001320 77 181 0.0 0.0 0.00 0.00 0.00 37 1019.4
20210923000816 78 181 0.0 0.0 0.00 0.00 0.00 36 1019.3
20210923000312 78 181 0.0 0.0 0.00 0.00 0.00 36 1019.3
20210922235828 78 181 0.0 0.0 0.00 0.00 0.00 36 1019.2
20210922235327 79 181 0.0 0.0 0.00 0.00 0.00 35 1019.2
20210922234823 79 181 0.0 0.0 0.00 0.00 0.00 35 1019.2
20210922234319 79 42 0.0 1.0 0.00 0.00 0.00 34 1019.2
20210922233815 79 42 0.0 1.0 0.00 0.00 0.00 34 1019.3
20210922233311 80 23 0.0 6.0 0.00 0.00 0.00 35 1019.3
20210922232827 80 26 0.0 6.0 0.00 0.00 0.00 34 1019.3
20210922232322 80 210 0.0 0.0 0.00 0.00 0.00 33 1019.3
20210922231822 81 240 0.0 0.0 0.00 0.00 0.00 32 1019.2
20210922231318 81 33 0.0 4.0 0.00 0.00 0.00 34 1019.3
20210922230814 81 32 2.0 4.0 0.00 0.00 0.00 32 1019.3
20210922230310 82 160 0.0 6.0 0.00 0.00 0.00 33 1019.3
20210922225826 82 74 0.0 6.0 0.00 0.00 0.00 30 1019.3
20210922225321 82 101 0.0 5.0 0.00 0.00 0.00 31 1019.3
20210922224818 82 76 2.0 5.0 0.00 0.00 0.00 32 1019.4
20210922224317 82 192 0.0 0.0 0.00 0.00 0.00 32 1019.4
20210922223813 82 46 0.0 0.0 0.00 0.00 0.00 31 1019.4
20210922223330 82 46 0.0 4.0 0.00 0.00 0.00 33 1019.5
20210922222825 82 236 1.0 6.0 0.00 0.00 0.00 30 1019.5
20210922222321 82 119 0.0 0.0 0.00 0.00 0.00 31 1019.6
20210922221817 82 164 0.0 7.0 0.00 0.00 0.00 29 1019.5
20210922221313 82 315 0.0 7.0 0.00 0.00 0.00 31 1019.5
20210922220812 82 117 0.0 6.0 0.00 0.00 0.00 29 1019.5
20210922220328 83 85 0.0 6.0 0.00 0.00 0.00 30 1019.6
20210922215824 83 98 0.0 2.0 0.00 0.00 0.00 31 1019.7
20210922215320 83 348 0.0 0.0 0.00 0.00 0.00 30 1019.8
20210922214815 83 63 0.0 0.0 0.00 0.00 0.00 30 1019.8
20210922214311 84 74 0.0 2.0 0.00 0.00 0.00 30 1019.9
20210922213827 84 311 0.0 2.0 0.00 0.00 0.00 30 1019.9
20210922213323 84 227 0.0 0.0 0.00 0.00 0.00 29 1019.9
20210922212823 84 16 0.0 0.0 0.00 0.00 0.00 32 1020.0
20210922212319 84 329 0.0 0.0 0.00 0.00 0.00 32 1020.1
20210922211814 84 360 0.0 1.0 0.00 0.00 0.00 31 1020.0
20210922211310 84 44 0.0 2.0 0.00 0.00 0.00 33 1020.1
20210922210825 84 329 0.0 2.0 0.00 0.00 0.00 32 1020.1
20210922210321 84 54 0.0 0.0 0.00 0.00 0.00 30 1020.2
20210922205816 84 325 0.0 0.0 0.00 0.00 0.00 30 1020.3
20210922205315 85 52 0.0 1.0 0.00 0.00 0.00 31 1020.3
20210922204829 84 96 0.0 1.0 0.00 0.00 0.00 30 1020.4
20210922204324 84 355 0.0 1.0 0.00 0.00 0.00 31 1020.5
20210922203820 84 30 0.0 1.0 0.00 0.00 0.00 32 1020.5
20210922203315 84 98 0.0 4.0 0.00 0.00 0.00 30 1020.6
20210922202811 85 300 0.0 4.0 0.00 0.00 0.00 30 1020.8
20210922202327 85 44 0.0 1.0 0.00 0.00 0.00 32 1020.9
20210922201827 85 56 0.0 0.0 0.00 0.00 0.00 30 1020.9
20210922201323 84 119 0.0 5.0 0.00 0.00 0.00 31 1021.1
20210922200819 84 146 0.0 5.0 0.00 0.00 0.00 30 1021.1